Weather Roundup
Issued by NWS

Home | Current Version | Previous Version | Graphics & Text | Print | Product List | Glossary Off
Versions: 1 2 3 4 5 6 7 8 9 10 11 12 13 14 15 16 17 18 19 20 21 22 23 24 25 26 27 28 29 30 31 32 33 34 35 36 37 38 39 40 41 42 43 44 45 46 47 48 49 50

000
NZUS93 KARX 160659
HRRWXR

CURRENT HOURLY OBSERVATIONS ACROSS
MUCH OF THE UPPER MISSISSIPPI VALLEY
NATIONAL WEATHER SERVICE LA CROSSE WI
200 AM CDT TUE SEP 16 2014


...SOUTHEAST MINNESOTA...


CITY           SKY/WX    TMP DP  RH WIND       PRES   REMARKS
ROCHESTER      CLEAR     41  37  86 SW6       30.23S
ROCHESTER/MAYO FAIR      46  39  79 CALM      30.23S
WINONA         CLEAR     41  41 100 CALM      30.23S
AUSTIN           N/A     39  37  93 CALM      30.23S FOG
ALBERT LEA     CLEAR     41  41 100 CALM      30.24S
DODGE CENTER   PTCLDY    39  39 100 W3        30.23S
PRESTON        CLEAR     42  42 100 CALM      30.24R
OWATONNA       CLEAR     39  37  93 CALM      30.23S
FARIBAULT      CLEAR     41  36  81 CALM      30.23S
$$

...ELSEWHERE IN MINNESOTA...


CITY           SKY/WX    TMP DP  RH WIND       PRES   REMARKS
MINNEAPOLIS    CLEAR     47  41  80 SW3       30.21S
INTNL FALLS    CLEAR     39  36  89 SW7       30.03S WCI  34
DULUTH         CLEAR     46  35  65 W12       30.12F
RED WING       PTCLDY    39  37  93 CALM      30.21S
REDWOOD FALLS  CLEAR     42  37  82 SW8       30.22F
MANKATO        CLEAR     43  36  75 SW5       30.23R
WORTHINGTON    CLEAR     39  36  87 SW5       30.25S
FAIRMONT       CLEAR     41  36  81 CALM      30.24S
$$

...SOUTHWEST WISCONSIN...


CITY           SKY/WX    TMP DP  RH WIND       PRES   REMARKS
LA CROSSE      CLEAR     46  43  89 SE5       30.22S
PRAIRIE DU CHI FOG       44  43  95 N3        30.24S VSB 1/4
BOSCOBEL       FOG       46  44  93 S3        30.24R VSB 1/4
LONE ROCK      NOT AVBL
PLATTEVILLE    CLEAR     44  43  96 CALM      30.24R
FORT MC COY    CLEAR     35  35 100 CALM      30.23S
CAMP DOUGLAS   CLEAR     37  37 100 CALM      30.21S FOG
VIROQUA        FAIR      42  42 100 CALM      30.22S
WIS DELLS      CLEAR     40  39  95 CALM      30.21S
$$

...ELSEWHERE IN WISCONSIN...


CITY           SKY/WX    TMP DP  RH WIND       PRES   REMARKS
MILWAUKEE      CLEAR     49  45  86 W6        30.17F
MADISON        CLEAR     41  39  93 CALM      30.21R
GREEN BAY      CLEAR     41  40  96 CALM      30.18R
EAU CLAIRE     CLEAR     42  39  89 SW3       30.20S
BLACK RVR FLS  PTSUNNY   33  33 100 CALM      30.21S
MEDFORD        CLEAR     35  34  98 CALM      30.18S
WAUSAU         CLEAR     40  38  93 CALM      30.17F
WIS RAPIDS     CLEAR     38  37  97 CALM      30.21S
MARSHFIELD     CLEAR     40  37  89 W5        30.19S
RICE LAKE      CLEAR     38  37  97 CALM      30.21S
$$

...NORTHEAST IOWA...


CITY           SKY/WX    TMP DP  RH WIND       PRES   REMARKS
WATERLOO       CLEAR     39  38  96 CALM      30.25R FOG
DUBUQUE        CLEAR     40  38  93 CALM      30.23S
DECORAH        PTCLDY    41  41 100 CALM      30.23S
MASON CITY     CLEAR     38  37  97 CALM      30.26S
CHARLES CITY   CLEAR     41  39  93 CALM      30.25S
OELWEIN        FOG       43  43 100 CALM      30.25S VSB 1
$$

...ELSEWHERE IN IOWA...


CITY           SKY/WX    TMP DP  RH WIND       PRES   REMARKS
DES MOINES     CLEAR     49  44  83 CALM      30.25S
IOWA CITY      NOT AVBL
FORT DODGE     MOCLDY    39  37  93 CALM      30.26R
MARSHALLTOWN   CLEAR     41  40  96 CALM      30.24S
CEDAR RAPIDS   NOT AVBL
$$

...NORTHERN ILLINOIS...


CITY           SKY/WX    TMP DP  RH WIND       PRES   REMARKS
CHICAGO-OHARE  CLEAR     50  47  89 NW6       30.18S
DUPAGE         CLEAR     45  43  93 W5        30.19S
CHICAGO-MIDWAY PTCLDY    53  49  86 N8        30.17S
MOLINE         CLEAR     46  43  89 CALM      30.23S
ROCKFORD       CLEAR     44  42  93 CALM      30.22S
STERLING       CLEAR     46  43  87 N3        30.21R
PEORIA         PTCLDY    53  49  86 N3        30.22R
$$

NOTE: "FAIR" INDICATES FEW OR NO CLOUDS BELOW 12,000 FEET WITH NO
SIGNIFICANT WEATHER AND/OR OBSTRUCTIONS TO VISIBILITY. WIND
SPEEDS ARE IN MILES-PER-HOUR.



USA.gov is the U.S. government's official web portal to all federal, state and local government web resources and services.